Time,TemperatureF,DewpointF,PressureIn,WindDirection,WindDirectionDegrees,WindSpeedMPH,WindSpeedGustMPH,Humidity,HourlyPrecipIn,Conditions,Clouds,dailyrainin,SoftwareType,DateUTC
2013-06-11 00:01:00,80.1,77.6,30.03,SE,127,0.0,0.0,92,0.00,,,0.00,Wunderground v.1.15,2013-06-11 04:01:00,
2013-06-11 00:02:00,79.9,77.4,30.03,SE,136,0.0,0.0,92,0.00,,,0.00,Wunderground v.1.15,2013-06-11 04:02:00,
2013-06-11 00:03:00,79.8,77.3,30.03,SE,141,0.0,0.0,92,0.00,,,0.00,Wunderground v.1.15,2013-06-11 04:03:00,
2013-06-11 00:04:00,79.9,77.4,30.03,SE,139,0.0,0.0,92,0.00,,,0.00,Wunderground v.1.15,2013-06-11 04:04:00,
2013-06-11 00:08:00,79.8,77.3,30.03,SE,139,0.0,0.0,92,0.00,,,0.00,Wunderground v.1.15,2013-06-11 04:08:00,
2013-06-11 00:13:00,80.9,78.4,30.03,East,91,0.0,0.0,92,0.00,,,0.00,Wunderground v.1.15,2013-06-11 04:13:00,
2013-06-11 00:19:00,80.9,78.4,30.03,East,91,0.0,0.0,92,0.00,,,0.00,Wunderground v.1.15,2013-06-11 04:19:00,
2013-06-11 00:25:00,80.1,77.6,30.03,ESE,122,0.0,0.0,92,0.00,,,0.00,Wunderground v.1.15,2013-06-11 04:25:00,
2013-06-11 00:30:00,80.3,77.8,30.03,SE,127,3.0,3.0,92,0.00,,,0.00,Wunderground v.1.15,2013-06-11 04:30:00,
2013-06-11 00:36:00,79.8,77.3,30.03,SE,140,0.0,3.0,92,0.00,,,0.00,Wunderground v.1.15,2013-06-11 04:36:00,
2013-06-11 00:41:00,79.8,77.3,30.03,SE,139,0.0,0.0,92,0.00,,,0.00,Wunderground v.1.15,2013-06-11 04:41:00,
2013-06-11 00:47:00,80.1,77.6,30.02,ESE,122,0.0,0.0,92,0.00,,,0.00,Wunderground v.1.15,2013-06-11 04:47:00,
2013-06-11 00:53:00,79.9,77.4,30.02,SE,131,0.0,0.0,92,0.00,,,0.00,Wunderground v.1.15,2013-06-11 04:53:00,
2013-06-11 00:59:00,79.9,77.4,30.02,SE,129,0.0,0.0,92,0.00,,,0.00,Wunderground v.1.15,2013-06-11 04:59:00,
2013-06-11 01:04:00,79.9,77.4,30.02,SE,127,0.0,0.0,92,0.00,,,0.00,Wunderground v.1.15,2013-06-11 05:04:00,
2013-06-11 01:09:00,79.9,77.4,30.02,SE,127,0.0,0.0,92,0.00,,,0.00,Wunderground v.1.15,2013-06-11 05:09:00,
2013-06-11 01:15:00,80.1,77.9,30.02,ESE,122,0.0,0.0,93,0.00,,,0.00,Wunderground v.1.15,2013-06-11 05:15:00,
2013-06-11 01:21:00,79.8,77.6,30.02,SE,137,0.0,0.0,93,0.00,,,0.00,Wunderground v.1.15,2013-06-11 05:21:00,
2013-06-11 01:27:00,79.8,77.6,30.02,SE,136,0.0,0.0,93,0.00,,,0.00,Wunderground v.1.15,2013-06-11 05:27:00,
2013-06-11 01:33:00,79.6,77.4,30.01,SE,136,0.0,0.0,93,0.00,,,0.00,Wunderground v.1.15,2013-06-11 05:33:00,
2013-06-11 01:39:00,79.8,77.6,30.01,SE,129,0.0,0.0,93,0.00,,,0.00,Wunderground v.1.15,2013-06-11 05:39:00,
2013-06-11 01:45:00,79.6,77.7,30.01,SE,139,0.0,0.0,94,0.00,,,0.00,Wunderground v.1.15,2013-06-11 05:45:00,
2013-06-11 01:50:00,79.6,77.7,30.01,SE,137,0.0,0.0,94,0.00,,,0.00,Wunderground v.1.15,2013-06-11 05:50:00,
2013-06-11 01:56:00,79.6,77.7,30.01,SE,137,0.0,0.0,94,0.00,,,0.00,Wunderground v.1.15,2013-06-11 05:56:00,
2013-06-11 02:01:00,79.6,77.7,30.01,SE,137,0.0,0.0,94,0.00,,,0.00,Wunderground v.1.15,2013-06-11 06:01:00,
2013-06-11 02:06:00,79.6,77.7,30.01,SE,137,0.0,0.0,94,0.00,,,0.00,Wunderground v.1.15,2013-06-11 06:06:00,
2013-06-11 02:11:00,79.4,77.5,30.01,SE,137,0.0,0.0,94,0.00,,,0.00,Wunderground v.1.15,2013-06-11 06:11:00,
2013-06-11 02:16:00,79.4,77.5,30.01,SE,136,0.0,0.0,94,0.00,,,0.00,Wunderground v.1.15,2013-06-11 06:16:00,
2013-06-11 02:21:00,79.4,77.5,30.01,SE,136,0.0,0.0,94,0.00,,,0.00,Wunderground v.1.15,2013-06-11 06:21:00,
2013-06-11 02:26:00,79.4,77.5,30.01,SE,138,0.0,0.0,94,0.00,,,0.00,Wunderground v.1.15,2013-06-11 06:26:00,
2013-06-11 02:31:00,79.0,77.4,30.01,SSE,147,0.0,0.0,95,0.00,,,0.00,Wunderground v.1.15,2013-06-11 06:31:00,
2013-06-11 02:36:00,79.0,77.4,30.01,SSE,147,0.0,0.0,95,0.00,,,0.00,Wunderground v.1.15,2013-06-11 06:36:00,
2013-06-11 02:42:00,79.0,77.4,30.01,SSE,147,0.0,0.0,95,0.00,,,0.00,Wunderground v.1.15,2013-06-11 06:42:00,
2013-06-11 02:47:00,79.0,77.4,30.01,SSE,147,0.0,0.0,95,0.00,,,0.00,Wunderground v.1.15,2013-06-11 06:47:00,
2013-06-11 02:52:00,79.0,77.8,30.01,SSE,147,0.0,0.0,96,0.00,,,0.00,Wunderground v.1.15,2013-06-11 06:52:00,
2013-06-11 02:57:00,79.0,77.4,30.01,SSE,147,0.0,0.0,95,0.00,,,0.00,Wunderground v.1.15,2013-06-11 06:57:00,
2013-06-11 03:02:00,78.8,77.6,30.00,SSE,156,0.0,0.0,96,0.00,,,0.00,Wunderground v.1.15,2013-06-11 07:02:00,
2013-06-11 03:07:00,78.8,77.2,30.00,SSE,157,0.0,0.0,95,0.00,,,0.00,Wunderground v.1.15,2013-06-11 07:07:00,
2013-06-11 03:12:00,78.6,77.0,30.00,SSE,156,0.0,0.0,95,0.00,,,0.00,Wunderground v.1.15,2013-06-11 07:12:00,
2013-06-11 03:17:00,78.6,77.0,29.99,SSE,156,0.0,0.0,95,0.00,,,0.00,Wunderground v.1.15,2013-06-11 07:17:00,
2013-06-11 03:22:00,78.6,77.4,29.99,SSE,155,0.0,0.0,96,0.00,,,0.00,Wunderground v.1.15,2013-06-11 07:22:00,
2013-06-11 03:27:00,78.5,77.3,29.99,SSE,155,0.0,0.0,96,0.00,,,0.00,Wunderground v.1.15,2013-06-11 07:27:00,
2013-06-11 03:32:00,78.5,77.3,29.99,SSE,155,0.0,0.0,96,0.00,,,0.00,Wunderground v.1.15,2013-06-11 07:32:00,
2013-06-11 03:37:00,78.3,77.1,29.99,SSE,155,0.0,0.0,96,0.00,,,0.00,Wunderground v.1.15,2013-06-11 07:37:00,
2013-06-11 03:42:00,78.3,77.1,29.99,SSE,158,0.0,0.0,96,0.00,,,0.00,Wunderground v.1.15,2013-06-11 07:42:00,
2013-06-11 03:47:00,78.3,77.1,29.98,SSE,158,0.0,0.0,96,0.00,,,0.00,Wunderground v.1.15,2013-06-11 07:47:00,
2013-06-11 03:52:00,78.1,76.9,29.98,SSE,158,0.0,0.0,96,0.00,,,0.00,Wunderground v.1.15,2013-06-11 07:52:00,
2013-06-11 03:58:00,78.1,76.9,29.98,SSE,158,0.0,0.0,96,0.00,,,0.00,Wunderground v.1.15,2013-06-11 07:58:00,
2013-06-11 04:03:00,78.1,76.9,29.99,SSE,159,0.0,0.0,96,0.00,,,0.00,Wunderground v.1.15,2013-06-11 08:03:00,
2013-06-11 04:08:00,77.9,76.7,29.99,SSE,158,0.0,0.0,96,0.00,,,0.00,Wunderground v.1.15,2013-06-11 08:08:00,
2013-06-11 04:13:00,77.9,76.7,29.99,SSE,158,0.0,0.0,96,0.00,,,0.00,Wunderground v.1.15,2013-06-11 08:13:00,
2013-06-11 04:18:00,77.7,76.5,29.99,SSE,158,0.0,0.0,96,0.00,,,0.00,Wunderground v.1.15,2013-06-11 08:18:00,
2013-06-11 04:23:00,77.7,76.5,29.99,SSE,158,0.0,0.0,96,0.00,,,0.00,Wunderground v.1.15,2013-06-11 08:23:00,
2013-06-11 04:28:00,77.6,76.4,29.99,SSE,158,0.0,0.0,96,0.00,,,0.00,Wunderground v.1.15,2013-06-11 08:28:00,
2013-06-11 04:33:00,77.6,76.4,29.99,SSE,158,0.0,0.0,96,0.00,,,0.00,Wunderground v.1.15,2013-06-11 08:33:00,
2013-06-11 04:38:00,77.4,76.2,29.99,SSE,158,0.0,0.0,96,0.00,,,0.00,Wunderground v.1.15,2013-06-11 08:38:00,
2013-06-11 04:43:00,77.4,76.2,29.99,SSE,158,0.0,0.0,96,0.00,,,0.00,Wunderground v.1.15,2013-06-11 08:43:00,
2013-06-11 04:49:00,77.2,76.0,29.99,SSE,158,0.0,0.0,96,0.00,,,0.00,Wunderground v.1.15,2013-06-11 08:49:00,
2013-06-11 04:54:00,77.2,76.0,29.99,SSE,158,0.0,0.0,96,0.00,,,0.00,Wunderground v.1.15,2013-06-11 08:54:00,
2013-06-11 04:59:00,77.0,75.8,30.00,SSE,158,0.0,0.0,96,0.00,,,0.00,Wunderground v.1.15,2013-06-11 08:59:00,
2013-06-11 05:04:00,77.0,75.8,30.00,SSE,158,0.0,0.0,96,0.00,,,0.00,Wunderground v.1.15,2013-06-11 09:04:00,
2013-06-11 05:09:00,76.8,75.6,30.00,SSE,158,0.0,0.0,96,0.00,,,0.00,Wunderground v.1.15,2013-06-11 09:09:00,
2013-06-11 05:14:00,76.8,75.6,30.00,SSE,158,0.0,0.0,96,0.00,,,0.00,Wunderground v.1.15,2013-06-11 09:14:00,
2013-06-11 05:19:00,76.8,75.6,30.00,SSE,158,0.0,0.0,96,0.00,,,0.00,Wunderground v.1.15,2013-06-11 09:19:00,
2013-06-11 05:24:00,76.7,75.5,30.00,SSE,157,0.0,0.0,96,0.00,,,0.00,Wunderground v.1.15,2013-06-11 09:24:00,
2013-06-11 05:29:00,76.7,75.5,30.00,SSE,157,0.0,0.0,96,0.00,,,0.00,Wunderground v.1.15,2013-06-11 09:29:00,
2013-06-11 05:34:00,76.7,75.5,30.00,SSE,157,0.0,0.0,96,0.00,,,0.00,Wunderground v.1.15,2013-06-11 09:34:00,
2013-06-11 05:40:00,76.5,75.3,30.00,SSE,157,0.0,0.0,96,0.00,,,0.00,Wunderground v.1.15,2013-06-11 09:40:00,
2013-06-11 05:45:00,76.5,75.3,30.00,SSE,158,0.0,0.0,96,0.00,,,0.00,Wunderground v.1.15,2013-06-11 09:45:00,
2013-06-11 05:50:00,76.3,75.1,30.00,SSE,157,0.0,0.0,96,0.00,,,0.00,Wunderground v.1.15,2013-06-11 09:50:00,
2013-06-11 05:55:00,76.1,74.9,30.00,SSE,157,0.0,0.0,96,0.00,,,0.00,Wunderground v.1.15,2013-06-11 09:55:00,
2013-06-11 06:00:00,76.1,75.2,30.00,SSE,157,0.0,0.0,97,0.00,,,0.00,Wunderground v.1.15,2013-06-11 10:00:00,
2013-06-11 06:06:00,76.1,74.9,30.00,SSE,157,0.0,0.0,96,0.00,,,0.00,Wunderground v.1.15,2013-06-11 10:06:00,
2013-06-11 06:11:00,76.0,75.1,30.00,SSE,157,0.0,0.0,97,0.00,,,0.00,Wunderground v.1.15,2013-06-11 10:11:00,
2013-06-11 06:16:00,76.0,75.1,30.00,SSE,157,0.0,0.0,97,0.00,,,0.00,Wunderground v.1.15,2013-06-11 10:16:00,
2013-06-11 06:21:00,76.0,75.1,30.00,SSE,157,0.0,0.0,97,0.00,,,0.00,Wunderground v.1.15,2013-06-11 10:21:00,
2013-06-11 06:26:00,75.8,74.9,30.00,SSE,157,0.0,0.0,97,0.00,,,0.00,Wunderground v.1.15,2013-06-11 10:26:00,
2013-06-11 06:31:00,76.0,75.1,30.01,SSE,157,0.0,0.0,97,0.00,,,0.00,Wunderground v.1.15,2013-06-11 10:31:00,
2013-06-11 06:36:00,76.0,75.1,30.01,SSE,157,0.0,0.0,97,0.00,,,0.00,Wunderground v.1.15,2013-06-11 10:36:00,
2013-06-11 06:41:00,75.8,74.9,30.01,SSE,157,0.0,0.0,97,0.00,,,0.00,Wunderground v.1.15,2013-06-11 10:41:00,
2013-06-11 06:46:00,75.8,74.9,30.01,SSE,157,0.0,0.0,97,0.00,,,0.00,Wunderground v.1.15,2013-06-11 10:46:00,
2013-06-11 06:51:00,75.8,74.9,30.01,SSE,157,0.0,0.0,97,0.00,,,0.00,Wunderground v.1.15,2013-06-11 10:51:00,
2013-06-11 06:56:00,75.8,74.9,30.01,SSE,157,0.0,0.0,97,0.00,,,0.00,Wunderground v.1.15,2013-06-11 10:56:00,
2013-06-11 07:01:00,75.8,74.9,30.01,SSE,156,0.0,0.0,97,0.00,,,0.00,Wunderground v.1.15,2013-06-11 11:01:00,
2013-06-11 07:06:00,75.8,74.9,30.01,SSE,156,0.0,0.0,97,0.00,,,0.00,Wunderground v.1.15,2013-06-11 11:06:00,
2013-06-11 07:11:00,76.0,75.4,30.01,SSE,156,0.0,0.0,98,0.00,,,0.00,Wunderground v.1.15,2013-06-11 11:11:00,
2013-06-11 07:17:00,76.1,75.5,30.02,SSE,156,0.0,0.0,98,0.00,,,0.00,Wunderground v.1.15,2013-06-11 11:17:00,
2013-06-11 07:22:00,76.3,75.7,30.02,SSE,155,0.0,0.0,98,0.00,,,0.00,Wunderground v.1.15,2013-06-11 11:22:00,
2013-06-11 07:27:00,76.5,75.9,30.02,SSE,155,0.0,0.0,98,0.00,,,0.00,Wunderground v.1.15,2013-06-11 11:27:00,
2013-06-11 07:32:00,76.8,76.2,30.02,SSE,155,0.0,0.0,98,0.00,,,0.00,Wunderground v.1.15,2013-06-11 11:32:00,
2013-06-11 07:37:00,77.2,76.9,30.02,SSE,155,0.0,0.0,99,0.00,,,0.00,Wunderground v.1.15,2013-06-11 11:37:00,
2013-06-11 07:42:00,77.4,77.1,30.02,SSE,155,0.0,0.0,99,0.00,,,0.00,Wunderground v.1.15,2013-06-11 11:42:00,
2013-06-11 07:47:00,77.6,77.3,30.03,SSE,155,0.0,0.0,99,0.00,,,0.00,Wunderground v.1.15,2013-06-11 11:47:00,
2013-06-11 07:52:00,77.7,77.4,30.03,SSE,155,0.0,0.0,99,0.00,,,0.00,Wunderground v.1.15,2013-06-11 11:52:00,
2013-06-11 07:57:00,77.7,77.4,30.03,SSE,155,0.0,0.0,99,0.00,,,0.00,Wunderground v.1.15,2013-06-11 11:57:00,
2013-06-11 08:02:00,77.9,77.6,30.03,SSE,154,0.0,0.0,99,0.00,,,0.00,Wunderground v.1.15,2013-06-11 12:02:00,
2013-06-11 08:07:00,78.1,77.8,30.03,SSE,154,0.0,0.0,99,0.00,,,0.00,Wunderground v.1.15,2013-06-11 12:07:00,
2013-06-11 08:13:00,78.3,78.0,30.03,SSE,154,0.0,0.0,99,0.00,,,0.00,Wunderground v.1.15,2013-06-11 12:13:00,
2013-06-11 08:18:00,77.9,77.6,30.03,South,169,0.0,0.0,99,0.00,,,0.00,Wunderground v.1.15,2013-06-11 12:18:00,
2013-06-11 08:23:00,78.1,77.8,30.03,South,169,0.0,0.0,99,0.00,,,0.00,Wunderground v.1.15,2013-06-11 12:23:00,
2013-06-11 08:28:00,78.3,78.0,30.03,South,169,0.0,0.0,99,0.00,,,0.00,Wunderground v.1.15,2013-06-11 12:28:00,
2013-06-11 08:33:00,77.4,76.8,30.03,SSW,195,0.0,0.0,98,0.00,,,0.00,Wunderground v.1.15,2013-06-11 12:33:00,
2013-06-11 08:38:00,78.1,77.5,30.03,South,178,0.0,0.0,98,0.00,,,0.00,Wunderground v.1.15,2013-06-11 12:38:00,
2013-06-11 08:43:00,79.4,78.5,30.03,SSE,150,0.0,0.0,97,0.00,,,0.00,Wunderground v.1.15,2013-06-11 12:43:00,
2013-06-11 08:48:00,78.8,77.6,30.03,South,169,0.0,0.0,96,0.00,,,0.00,Wunderground v.1.15,2013-06-11 12:48:00,
2013-06-11 08:54:00,79.0,77.8,30.03,South,172,0.0,0.0,96,0.00,,,0.00,Wunderground v.1.15,2013-06-11 12:54:00,
2013-06-11 08:59:00,76.7,75.2,30.03,SW,233,0.0,0.0,95,0.00,,,0.00,Wunderground v.1.15,2013-06-11 12:59:00,
2013-06-11 09:04:00,78.1,75.9,30.03,SSW,205,0.0,0.0,93,0.00,,,0.00,Wunderground v.1.15,2013-06-11 13:04:00,
2013-06-11 09:09:00,78.8,75.9,30.03,SSW,195,0.0,0.0,91,0.00,,,0.00,Wunderground v.1.15,2013-06-11 13:09:00,
2013-06-11 09:14:00,79.2,76.0,30.03,South,191,0.0,0.0,90,0.00,,,0.00,Wunderground v.1.15,2013-06-11 13:14:00,
2013-06-11 09:19:00,79.4,76.2,30.03,South,191,0.0,0.0,90,0.00,,,0.00,Wunderground v.1.15,2013-06-11 13:19:00,
2013-06-11 09:23:00,81.2,77.3,30.03,SSE,153,0.0,0.0,88,0.00,,,0.00,Wunderground v.1.15,2013-06-11 13:23:00,
2013-06-11 09:29:00,80.7,76.1,30.03,South,172,0.0,0.0,86,0.00,,,0.00,Wunderground v.1.15,2013-06-11 13:29:00,
2013-06-11 09:34:00,80.9,76.3,30.03,South,172,0.0,0.0,86,0.00,,,0.00,Wunderground v.1.15,2013-06-11 13:34:00,
2013-06-11 09:39:00,81.1,75.8,30.03,South,172,0.0,0.0,84,0.00,,,0.00,Wunderground v.1.15,2013-06-11 13:39:00,
2013-06-11 09:44:00,83.6,78.2,30.03,ESE,112,0.0,0.0,84,0.00,,,0.00,Wunderground v.1.15,2013-06-11 13:44:00,
2013-06-11 09:49:00,83.8,78.4,30.03,ESE,112,0.0,0.0,84,0.00,,,0.00,Wunderground v.1.15,2013-06-11 13:49:00,
2013-06-11 09:54:00,84.0,78.3,30.03,ESE,112,0.0,0.0,83,0.00,,,0.00,Wunderground v.1.15,2013-06-11 13:54:00,
2013-06-11 09:59:00,84.0,77.9,30.03,ESE,112,0.0,0.0,82,0.00,,,0.00,Wunderground v.1.15,2013-06-11 13:59:00,
2013-06-11 10:04:00,85.5,79.7,30.03,East,84,0.0,0.0,83,0.00,,,0.00,Wunderground v.1.15,2013-06-11 14:04:00,
2013-06-11 10:09:00,84.0,77.5,30.03,ESE,117,0.0,0.0,81,0.00,,,0.00,Wunderground v.1.15,2013-06-11 14:09:00,
2013-06-11 10:14:00,84.0,78.3,30.03,ESE,117,0.0,0.0,83,0.00,,,0.00,Wunderground v.1.15,2013-06-11 14:14:00,
2013-06-11 10:19:00,84.0,77.5,30.03,ESE,117,0.0,0.0,81,0.00,,,0.00,Wunderground v.1.15,2013-06-11 14:19:00,
2013-06-11 10:24:00,84.0,77.5,30.03,ESE,117,0.0,0.0,81,0.00,,,0.00,Wunderground v.1.15,2013-06-11 14:24:00,
2013-06-11 10:29:00,84.0,77.2,30.03,ESE,117,0.0,0.0,80,0.00,,,0.00,Wunderground v.1.15,2013-06-11 14:29:00,
2013-06-11 10:34:00,84.0,76.4,30.03,ESE,117,0.0,0.0,78,0.00,,,0.00,Wunderground v.1.15,2013-06-11 14:34:00,
2013-06-11 10:39:00,84.9,77.3,30.03,ESE,104,0.0,0.0,78,0.00,,,0.00,Wunderground v.1.15,2013-06-11 14:39:00,
2013-06-11 10:44:00,85.1,77.1,30.03,ESE,104,0.0,0.0,77,0.00,,,0.00,Wunderground v.1.15,2013-06-11 14:44:00,
2013-06-11 10:49:00,85.3,76.5,30.03,ESE,104,0.0,0.0,75,0.00,,,0.00,Wunderground v.1.15,2013-06-11 14:49:00,
2013-06-11 10:54:00,85.5,78.2,30.03,ESE,104,0.0,0.0,79,0.00,,,0.00,Wunderground v.1.15,2013-06-11 14:54:00,
2013-06-11 10:59:00,88.0,80.7,30.03,ENE,58,0.0,0.0,79,0.00,,,0.00,Wunderground v.1.15,2013-06-11 14:59:00,
2013-06-11 11:04:00,86.7,79.4,30.03,ENE,78,0.0,0.0,79,0.00,,,0.00,Wunderground v.1.15,2013-06-11 15:04:00,
2013-06-11 11:09:00,86.1,79.2,30.03,ESE,103,0.0,0.0,80,0.00,,,0.00,Wunderground v.1.15,2013-06-11 15:09:00,
2013-06-11 11:14:00,85.7,78.4,30.03,ESE,121,0.0,0.0,79,0.00,,,0.00,Wunderground v.1.15,2013-06-11 15:14:00,
2013-06-11 11:19:00,87.4,79.3,30.03,East,96,0.0,1.0,77,0.00,,,0.00,Wunderground v.1.15,2013-06-11 15:19:00,
2013-06-11 11:24:00,82.4,74.5,30.03,SSW,195,0.0,0.0,77,0.00,,,0.00,Wunderground v.1.15,2013-06-11 15:24:00,
2013-06-11 11:29:00,85.1,77.1,30.03,SE,135,0.0,0.0,77,0.00,,,0.00,Wunderground v.1.15,2013-06-11 15:29:00,
2013-06-11 11:35:00,86.1,78.8,30.03,ESE,118,0.0,3.0,79,0.00,,,0.00,Wunderground v.1.15,2013-06-11 15:35:00,
2013-06-11 11:40:00,87.6,79.5,30.03,East,85,0.0,0.0,77,0.00,,,0.00,Wunderground v.1.15,2013-06-11 15:40:00,
2013-06-11 11:45:00,85.3,77.3,30.04,SE,137,1.0,7.0,77,0.00,,,0.00,Wunderground v.1.15,2013-06-11 15:45:00,
2013-06-11 11:50:00,85.9,77.5,30.04,SE,136,0.0,2.0,76,0.00,,,0.00,Wunderground v.1.15,2013-06-11 15:50:00,
2013-06-11 11:55:00,86.3,77.4,30.04,SE,136,0.0,5.0,75,0.00,,,0.00,Wunderground v.1.15,2013-06-11 15:55:00,
2013-06-11 12:00:00,86.3,77.0,30.04,SE,145,0.0,2.0,74,0.00,,,0.00,Wunderground v.1.15,2013-06-11 16:00:00,
2013-06-11 12:05:00,87.0,78.1,30.04,SE,139,0.0,7.0,75,0.00,,,0.00,Wunderground v.1.15,2013-06-11 16:05:00,
2013-06-11 12:10:00,89.0,79.2,30.04,East,96,0.0,1.0,73,0.00,,,0.00,Wunderground v.1.15,2013-06-11 16:10:00,
2013-06-11 12:15:00,89.9,80.1,30.03,South,172,0.0,4.0,73,0.00,,,0.00,Wunderground v.1.15,2013-06-11 16:15:00,
2013-06-11 12:20:00,88.4,78.6,30.03,SE,136,2.0,4.0,73,0.00,,,0.00,Wunderground v.1.15,2013-06-11 16:20:00,
2013-06-11 12:25:00,88.6,78.4,30.03,ESE,120,1.0,11.0,72,0.00,,,0.00,Wunderground v.1.15,2013-06-11 16:25:00,
2013-06-11 12:30:00,88.2,77.6,30.03,ESE,119,0.0,2.0,71,0.00,,,0.00,Wunderground v.1.15,2013-06-11 16:30:00,
2013-06-11 12:35:00,88.4,78.6,30.03,East,94,0.0,6.0,73,0.00,,,0.00,Wunderground v.1.15,2013-06-11 16:35:00,
2013-06-11 12:40:00,86.5,76.4,30.03,SE,140,4.0,9.0,72,0.00,,,0.00,Wunderground v.1.15,2013-06-11 16:40:00,
2013-06-11 12:45:00,86.5,77.2,30.03,ESE,104,0.0,9.0,74,0.00,,,0.00,Wunderground v.1.15,2013-06-11 16:45:00,
2013-06-11 12:51:00,86.1,76.8,30.03,ENE,58,0.0,7.0,74,0.00,,,0.00,Wunderground v.1.15,2013-06-11 16:51:00,
2013-06-11 12:56:00,84.7,75.9,30.03,SSE,153,0.0,7.0,75,0.00,,,0.00,Wunderground v.1.15,2013-06-11 16:56:00,
2013-06-11 13:01:00,84.5,76.1,30.03,SSE,150,0.0,0.0,76,0.00,,,0.00,Wunderground v.1.15,2013-06-11 17:01:00,
2013-06-11 13:06:00,84.9,76.9,30.03,ESE,109,0.0,0.0,77,0.00,,,0.00,Wunderground v.1.15,2013-06-11 17:06:00,
2013-06-11 13:11:00,84.7,77.5,30.03,ESE,111,0.0,0.0,79,0.00,,,0.00,Wunderground v.1.15,2013-06-11 17:11:00,
2013-06-11 13:16:00,84.5,77.3,30.03,ESE,114,0.0,3.0,79,0.00,,,0.00,Wunderground v.1.15,2013-06-11 17:16:00,
2013-06-11 13:21:00,84.3,77.5,30.03,ESE,106,0.0,0.0,80,0.00,,,0.00,Wunderground v.1.15,2013-06-11 17:21:00,
2013-06-11 13:26:00,84.7,77.8,30.03,ENE,70,0.0,2.0,80,0.00,,,0.00,Wunderground v.1.15,2013-06-11 17:26:00,
2013-06-11 13:31:00,84.5,78.0,30.02,ENE,74,0.0,0.0,81,0.00,,,0.00,Wunderground v.1.15,2013-06-11 17:31:00,
2013-06-11 13:36:00,83.8,77.7,30.02,ESE,103,0.0,0.0,82,0.00,,,0.00,Wunderground v.1.15,2013-06-11 17:36:00,
2013-06-11 13:42:00,83.6,77.5,30.02,ESE,105,0.0,1.0,82,0.00,,,0.00,Wunderground v.1.15,2013-06-11 17:42:00,
2013-06-11 13:47:00,83.2,77.1,30.03,ESE,115,0.0,1.0,82,0.00,,,0.00,Wunderground v.1.15,2013-06-11 17:47:00,
2013-06-11 13:52:00,83.0,77.3,30.03,ESE,113,0.0,0.0,83,0.00,,,0.00,Wunderground v.1.15,2013-06-11 17:52:00,
2013-06-11 13:57:00,83.0,77.3,30.03,ESE,113,0.0,0.0,83,0.00,,,0.00,Wunderground v.1.15,2013-06-11 17:57:00,
2013-06-11 14:02:00,82.8,77.1,30.01,SE,124,0.0,0.0,83,0.00,,,0.00,Wunderground v.1.15,2013-06-11 18:02:00,
2013-06-11 14:07:00,82.8,77.5,30.01,SE,124,0.0,0.0,84,0.00,,,0.00,Wunderground v.1.15,2013-06-11 18:07:00,
2013-06-11 14:12:00,83.0,77.3,30.01,SE,124,0.0,0.0,83,0.00,,,0.00,Wunderground v.1.15,2013-06-11 18:12:00,
2013-06-11 14:17:00,83.0,77.3,30.01,ESE,122,0.0,0.0,83,0.00,,,0.00,Wunderground v.1.15,2013-06-11 18:17:00,
2013-06-11 14:22:00,83.0,77.7,30.01,SE,135,0.0,0.0,84,0.00,,,0.00,Wunderground v.1.15,2013-06-11 18:22:00,
2013-06-11 14:27:00,82.8,77.1,30.01,SSE,147,0.0,0.0,83,0.00,,,0.00,Wunderground v.1.15,2013-06-11 18:27:00,
2013-06-11 14:32:00,83.2,77.5,30.01,SE,146,0.0,1.0,83,0.00,,,0.00,Wunderground v.1.15,2013-06-11 18:32:00,
2013-06-11 14:37:00,82.8,77.5,30.01,South,184,0.0,1.0,84,0.00,,,0.00,Wunderground v.1.15,2013-06-11 18:37:00,
2013-06-11 14:42:00,83.0,76.9,30.01,SSW,196,0.0,6.0,82,0.00,,,0.00,Wunderground v.1.15,2013-06-11 18:42:00,
2013-06-11 14:47:00,84.5,77.6,30.02,SE,146,0.0,6.0,80,0.00,,,0.00,Wunderground v.1.15,2013-06-11 18:47:00,
2013-06-11 14:52:00,84.5,77.6,30.02,SE,146,0.0,1.0,80,0.00,,,0.00,Wunderground v.1.15,2013-06-11 18:52:00,
2013-06-11 14:57:00,84.5,77.6,30.02,SE,145,0.0,1.0,80,0.00,,,0.00,Wunderground v.1.15,2013-06-11 18:57:00,
2013-06-11 15:02:00,84.5,77.6,30.01,SE,146,0.0,0.0,80,0.00,,,0.00,Wunderground v.1.15,2013-06-11 19:02:00,
2013-06-11 15:07:00,84.3,77.8,30.01,SSE,153,0.0,3.0,81,0.00,,,0.00,Wunderground v.1.15,2013-06-11 19:07:00,
2013-06-11 15:12:00,84.3,77.5,30.01,SSE,153,0.0,0.0,80,0.00,,,0.00,Wunderground v.1.15,2013-06-11 19:12:00,
2013-06-11 15:17:00,84.0,76.8,30.01,WSW,247,2.0,2.0,79,0.00,,,0.00,Wunderground v.1.15,2013-06-11 19:17:00,
2013-06-11 15:22:00,83.0,75.4,30.01,SW,222,4.0,7.0,78,0.00,,,0.00,Wunderground v.1.15,2013-06-11 19:22:00,
2013-06-11 15:27:00,83.0,74.6,30.01,SW,234,0.0,10.0,76,0.00,,,0.00,Wunderground v.1.15,2013-06-11 19:27:00,
2013-06-11 15:32:00,83.2,73.6,30.00,SW,236,0.0,2.0,73,0.00,,,0.00,Wunderground v.1.15,2013-06-11 19:32:00,
2013-06-11 15:37:00,83.4,73.0,30.00,WSW,240,0.0,2.0,71,0.00,,,0.00,Wunderground v.1.15,2013-06-11 19:37:00,
2013-06-11 15:42:00,84.1,74.5,30.00,WSW,240,0.0,0.0,73,0.00,,,0.00,Wunderground v.1.15,2013-06-11 19:42:00,
2013-06-11 15:47:00,84.9,74.0,30.00,WSW,244,0.0,0.0,70,0.00,,,0.00,Wunderground v.1.15,2013-06-11 19:47:00,
2013-06-11 15:52:00,86.5,76.0,30.00,SW,216,0.0,0.0,71,0.00,,,0.00,Wunderground v.1.15,2013-06-11 19:52:00,
2013-06-11 15:57:00,88.8,77.3,30.00,SSE,149,0.0,0.0,69,0.00,,,0.00,Wunderground v.1.15,2013-06-11 19:57:00,
2013-06-11 16:02:00,88.6,77.6,29.98,SSE,159,0.0,0.0,70,0.00,,,0.00,Wunderground v.1.15,2013-06-11 20:02:00,
2013-06-11 16:07:00,88.6,77.6,29.98,SSE,160,0.0,0.0,70,0.00,,,0.00,Wunderground v.1.15,2013-06-11 20:07:00,
2013-06-11 16:12:00,88.4,76.5,29.98,SSE,160,0.0,0.0,68,0.00,,,0.00,Wunderground v.1.15,2013-06-11 20:12:00,
2013-06-11 16:17:00,88.2,76.7,29.98,SSE,160,0.0,0.0,69,0.00,,,0.00,Wunderground v.1.15,2013-06-11 20:17:00,
2013-06-11 16:22:00,88.0,77.4,29.98,SSE,161,0.0,0.0,71,0.00,,,0.00,Wunderground v.1.15,2013-06-11 20:22:00,
2013-06-11 16:27:00,87.8,77.6,29.98,SE,129,0.0,1.0,72,0.00,,,0.00,Wunderground v.1.15,2013-06-11 20:27:00,
2013-06-11 16:32:00,87.2,76.6,29.98,SE,129,0.0,0.0,71,0.00,,,0.00,Wunderground v.1.15,2013-06-11 20:32:00,
2013-06-11 16:37:00,87.0,76.9,29.98,SE,129,0.0,0.0,72,0.00,,,0.00,Wunderground v.1.15,2013-06-11 20:37:00,
2013-06-11 16:42:00,86.5,76.4,29.98,SE,129,0.0,0.0,72,0.00,,,0.00,Wunderground v.1.15,2013-06-11 20:42:00,
2013-06-11 16:47:00,86.1,76.8,29.99,SE,129,0.0,0.0,74,0.00,,,0.00,Wunderground v.1.15,2013-06-11 20:47:00,
2013-06-11 16:52:00,85.9,76.6,29.99,SE,129,0.0,0.0,74,0.00,,,0.00,Wunderground v.1.15,2013-06-11 20:52:00,
2013-06-11 16:57:00,85.7,77.3,29.99,SE,129,0.0,0.0,76,0.00,,,0.00,Wunderground v.1.15,2013-06-11 20:57:00,
2013-06-11 17:02:00,85.3,76.9,29.98,SE,129,0.0,0.0,76,0.00,,,0.00,Wunderground v.1.15,2013-06-11 21:02:00,
2013-06-11 17:07:00,84.9,76.1,29.98,SE,129,0.0,0.0,75,0.00,,,0.00,Wunderground v.1.15,2013-06-11 21:07:00,
2013-06-11 17:12:00,84.5,76.5,29.98,SE,129,0.0,0.0,77,0.00,,,0.00,Wunderground v.1.15,2013-06-11 21:12:00,
2013-06-11 17:17:00,84.1,76.1,29.99,SE,129,0.0,0.0,77,0.00,,,0.00,Wunderground v.1.15,2013-06-11 21:17:00,
2013-06-11 17:22:00,83.8,76.2,29.99,SE,129,0.0,0.0,78,0.00,,,0.00,Wunderground v.1.15,2013-06-11 21:22:00,
2013-06-11 17:27:00,83.6,76.4,29.99,SE,129,0.0,0.0,79,0.00,,,0.00,Wunderground v.1.15,2013-06-11 21:27:00,
2013-06-11 17:32:00,83.6,76.4,30.00,SE,129,0.0,0.0,79,0.00,,,0.00,Wunderground v.1.15,2013-06-11 21:32:00,
2013-06-11 17:37:00,82.4,75.2,30.00,SW,216,0.0,0.0,79,0.00,,,0.00,Wunderground v.1.15,2013-06-11 21:37:00,
2013-06-11 17:42:00,81.6,74.5,30.00,West,266,0.0,0.0,79,0.00,,,0.00,Wunderground v.1.15,2013-06-11 21:42:00,
2013-06-11 17:47:00,81.2,74.4,30.01,West,273,0.0,0.0,80,0.00,,,0.00,Wunderground v.1.15,2013-06-11 21:47:00,
2013-06-11 17:52:00,81.1,74.3,30.01,West,271,0.0,2.0,80,0.00,,,0.00,Wunderground v.1.15,2013-06-11 21:52:00,
2013-06-11 17:57:00,80.7,74.0,30.01,West,279,0.0,2.0,80,0.00,,,0.00,Wunderground v.1.15,2013-06-11 21:57:00,
2013-06-11 18:02:00,80.5,73.8,30.01,West,279,0.0,0.0,80,0.00,,,0.00,Wunderground v.1.15,2013-06-11 22:02:00,
2013-06-11 18:08:00,80.3,73.6,30.01,West,276,0.0,1.0,80,0.00,,,0.00,Wunderground v.1.15,2013-06-11 22:08:00,
2013-06-11 18:13:00,79.9,73.5,30.01,West,276,0.0,0.0,81,0.00,,,0.00,Wunderground v.1.15,2013-06-11 22:13:00,
2013-06-11 18:18:00,79.4,73.1,30.00,WNW,300,0.0,3.0,81,0.00,,,0.00,Wunderground v.1.15,2013-06-11 22:18:00,
2013-06-11 18:23:00,79.0,71.9,30.00,WNW,292,0.0,1.0,79,0.00,,,0.00,Wunderground v.1.15,2013-06-11 22:23:00,
2013-06-11 18:29:00,78.5,71.1,30.00,WNW,303,0.0,9.0,78,0.00,,,0.00,Wunderground v.1.15,2013-06-11 22:29:00,
2013-06-11 18:34:00,78.1,70.7,30.00,NW,315,0.0,1.0,78,0.00,,,0.00,Wunderground v.1.15,2013-06-11 22:34:00,
2013-06-11 18:39:00,77.9,70.9,30.00,NW,315,0.0,1.0,79,0.00,,,0.00,Wunderground v.1.15,2013-06-11 22:39:00,
2013-06-11 18:44:00,77.9,70.9,30.00,NW,315,0.0,0.0,79,0.00,,,0.00,Wunderground v.1.15,2013-06-11 22:44:00,
2013-06-11 18:49:00,77.7,71.4,30.00,NW,315,0.0,0.0,81,0.00,,,0.00,Wunderground v.1.15,2013-06-11 22:49:00,
2013-06-11 18:54:00,77.6,71.3,30.00,NW,315,0.0,0.0,81,0.00,,,0.00,Wunderground v.1.15,2013-06-11 22:54:00,
2013-06-11 18:59:00,77.4,71.1,30.00,NW,315,0.0,0.0,81,0.00,,,0.00,Wunderground v.1.15,2013-06-11 22:59:00,
2013-06-11 19:04:00,77.4,71.1,30.00,NW,306,0.0,1.0,81,0.00,,,0.00,Wunderground v.1.15,2013-06-11 23:04:00,
2013-06-11 19:09:00,77.2,71.3,30.00,NW,306,0.0,1.0,82,0.00,,,0.00,Wunderground v.1.15,2013-06-11 23:09:00,
2013-06-11 19:14:00,77.2,71.3,30.00,NW,304,0.0,0.0,82,0.00,,,0.00,Wunderground v.1.15,2013-06-11 23:14:00,
2013-06-11 19:19:00,77.0,71.1,30.00,NW,304,0.0,0.0,82,0.00,,,0.00,Wunderground v.1.15,2013-06-11 23:19:00,
2013-06-11 19:35:00,78.5,72.9,29.99,SSW,208,0.0,0.0,83,0.00,,,0.00,Wunderground v.1.15,2013-06-11 23:35:00,
2013-06-11 19:40:00,78.5,72.9,29.99,SSW,208,0.0,0.0,83,0.00,,,0.00,Wunderground v.1.15,2013-06-11 23:40:00,
2013-06-11 19:45:00,78.6,73.0,29.99,SSW,195,0.0,0.0,83,0.00,,,0.00,Wunderground v.1.15,2013-06-11 23:45:00,
2013-06-11 19:50:00,78.6,73.4,29.99,SSW,195,0.0,0.0,84,0.00,,,0.00,Wunderground v.1.15,2013-06-11 23:50:00,
2013-06-11 19:55:00,78.5,73.3,29.99,SSW,195,0.0,0.0,84,0.00,,,0.00,Wunderground v.1.15,2013-06-11 23:55:00,
2013-06-11 20:00:00,78.5,73.3,29.99,SSW,195,0.0,0.0,84,0.00,,,0.00,Wunderground v.1.15,2013-06-12 00:00:00,
2013-06-11 20:05:00,78.5,73.3,29.99,SSW,195,0.0,0.0,84,0.00,,,0.00,Wunderground v.1.15,2013-06-12 00:05:00,
2013-06-11 20:11:00,78.3,73.1,29.99,SSW,195,0.0,0.0,84,0.00,,,0.00,Wunderground v.1.15,2013-06-12 00:11:00,
2013-06-11 20:16:00,78.1,73.2,29.98,SSW,195,0.0,0.0,85,0.00,,,0.00,Wunderground v.1.15,2013-06-12 00:16:00,
2013-06-11 20:21:00,78.1,73.2,29.98,SSW,195,0.0,0.0,85,0.00,,,0.00,Wunderground v.1.15,2013-06-12 00:21:00,
2013-06-11 20:26:00,78.1,73.2,29.98,SSW,195,0.0,0.0,85,0.00,,,0.00,Wunderground v.1.15,2013-06-12 00:26:00,
2013-06-11 20:31:00,80.9,76.0,29.98,NE,37,0.0,0.0,85,0.00,,,0.00,Wunderground v.1.15,2013-06-12 00:31:00,
2013-06-11 20:36:00,81.2,76.3,29.98,North,4,1.0,1.0,85,0.00,,,0.00,Wunderground v.1.15,2013-06-12 00:36:00,
2013-06-11 20:41:00,81.2,76.3,29.98,NNE,24,0.0,0.0,85,0.00,,,0.00,Wunderground v.1.15,2013-06-12 00:41:00,
2013-06-11 20:47:00,79.9,75.0,29.98,North,0,0.0,3.0,85,0.00,,,0.00,Wunderground v.1.15,2013-06-12 00:47:00,
2013-06-11 20:52:00,74.6,69.4,29.98,NNW,347,0.0,0.0,84,0.00,,,0.00,Wunderground v.1.15,2013-06-12 00:52:00,
2013-06-11 20:57:00,74.6,69.4,29.98,North,0,0.0,0.0,84,0.00,,,0.00,Wunderground v.1.15,2013-06-12 00:57:00,
2013-06-11 21:02:00,80.1,74.8,29.98,North,0,0.0,0.0,84,0.00,,,0.00,Wunderground v.1.15,2013-06-12 01:02:00,
2013-06-11 21:07:00,80.1,75.2,29.98,North,0,0.0,0.0,85,0.00,,,0.00,Wunderground v.1.15,2013-06-12 01:07:00,
2013-06-11 21:12:00,80.1,75.2,29.98,North,0,0.0,0.0,85,0.00,,,0.00,Wunderground v.1.15,2013-06-12 01:12:00,
2013-06-11 21:17:00,79.9,75.3,29.98,North,0,0.0,0.0,86,0.00,,,0.00,Wunderground v.1.15,2013-06-12 01:17:00,
2013-06-11 21:22:00,79.9,75.7,29.98,North,0,0.0,0.0,87,0.00,,,0.00,Wunderground v.1.15,2013-06-12 01:22:00,
2013-06-11 21:27:00,81.4,77.2,29.98,North,6,0.0,1.0,87,0.00,,,0.00,Wunderground v.1.15,2013-06-12 01:27:00,
2013-06-11 21:32:00,77.6,73.4,29.97,SSW,195,0.0,1.0,87,0.00,,,0.00,Wunderground v.1.15,2013-06-12 01:32:00,
2013-06-11 21:37:00,77.2,73.0,29.97,SW,214,0.0,3.0,87,0.00,,,0.00,Wunderground v.1.15,2013-06-12 01:37:00,
2013-06-11 21:42:00,77.7,73.5,29.97,South,184,0.0,0.0,87,0.00,,,0.00,Wunderground v.1.15,2013-06-12 01:42:00,
2013-06-11 21:48:00,77.4,73.2,29.98,SSW,198,0.0,1.0,87,0.00,,,0.00,Wunderground v.1.15,2013-06-12 01:48:00,
2013-06-11 21:53:00,77.4,73.6,29.98,SSW,203,0.0,0.0,88,0.00,,,0.00,Wunderground v.1.15,2013-06-12 01:53:00,
2013-06-11 21:58:00,78.1,74.3,29.98,South,169,0.0,4.0,88,0.00,,,0.00,Wunderground v.1.15,2013-06-12 01:58:00,
2013-06-11 22:03:00,77.2,73.4,29.98,SSW,207,0.0,0.0,88,0.00,,,0.00,Wunderground v.1.15,2013-06-12 02:03:00,
2013-06-11 22:08:00,77.4,73.6,29.98,SSW,202,0.0,1.0,88,0.00,,,0.00,Wunderground v.1.15,2013-06-12 02:08:00,
2013-06-11 22:13:00,77.6,73.8,29.98,SSW,193,0.0,1.0,88,0.00,,,0.00,Wunderground v.1.15,2013-06-12 02:13:00,
2013-06-11 22:18:00,77.4,73.6,29.98,SSW,202,0.0,1.0,88,0.00,,,0.00,Wunderground v.1.15,2013-06-12 02:18:00,
2013-06-11 22:23:00,78.5,74.6,29.98,SE,146,0.0,1.0,88,0.00,,,0.00,Wunderground v.1.15,2013-06-12 02:23:00,
2013-06-11 22:28:00,78.5,75.0,29.98,SSE,150,0.0,1.0,89,0.00,,,0.00,Wunderground v.1.15,2013-06-12 02:28:00,
2013-06-11 22:33:00,78.3,74.8,29.97,SSE,154,0.0,1.0,89,0.00,,,0.00,Wunderground v.1.15,2013-06-12 02:33:00,
2013-06-11 22:38:00,78.3,74.8,29.97,SSE,161,0.0,1.0,89,0.00,,,0.00,Wunderground v.1.15,2013-06-12 02:38:00,
2013-06-11 22:43:00,78.3,74.8,29.97,SSE,160,0.0,0.0,89,0.00,,,0.00,Wunderground v.1.15,2013-06-12 02:43:00,
2013-06-11 22:48:00,78.3,75.1,29.99,SSE,161,0.0,0.0,90,0.00,,,0.00,Wunderground v.1.15,2013-06-12 02:48:00,
2013-06-11 22:53:00,78.3,75.1,29.99,SSE,160,0.0,0.0,90,0.00,,,0.00,Wunderground v.1.15,2013-06-12 02:53:00,
2013-06-11 22:58:00,74.4,71.3,29.99,NW,316,5.0,7.0,90,0.00,,,0.00,Wunderground v.1.15,2013-06-12 02:58:00,
2013-06-11 23:03:00,73.7,69.9,30.01,NNW,345,0.0,4.0,88,0.00,,,0.00,Wunderground v.1.15,2013-06-12 03:03:00,
2013-06-11 23:08:00,73.3,69.5,30.01,NNW,346,0.0,4.0,88,0.00,,,0.00,Wunderground v.1.15,2013-06-12 03:08:00,
2013-06-11 23:13:00,73.2,69.4,30.01,NNW,346,0.0,0.0,88,0.00,,,0.00,Wunderground v.1.15,2013-06-12 03:13:00,
2013-06-11 23:18:00,73.2,69.8,30.01,NNW,346,0.0,0.0,89,0.00,,,0.00,Wunderground v.1.15,2013-06-12 03:18:00,
2013-06-11 23:23:00,73.0,69.6,30.01,NNW,346,0.0,0.0,89,0.00,,,0.00,Wunderground v.1.15,2013-06-12 03:23:00,
2013-06-11 23:28:00,73.0,69.6,30.01,NNW,346,0.0,0.0,89,0.00,,,0.00,Wunderground v.1.15,2013-06-12 03:28:00,
2013-06-11 23:33:00,72.8,69.7,30.01,NNW,346,0.0,0.0,90,0.00,,,0.00,Wunderground v.1.15,2013-06-12 03:33:00,
2013-06-11 23:38:00,72.8,69.7,30.01,NNW,346,0.0,0.0,90,0.00,,,0.00,Wunderground v.1.15,2013-06-12 03:38:00,
2013-06-11 23:43:00,72.7,69.9,30.00,NNW,346,0.0,0.0,91,0.00,,,0.00,Wunderground v.1.15,2013-06-12 03:43:00,
2013-06-11 23:48:00,72.7,69.9,30.00,NNW,346,0.0,0.0,91,0.00,,,0.00,Wunderground v.1.15,2013-06-12 03:48:00,
2013-06-11 23:53:00,72.7,69.9,30.00,NNW,346,0.0,0.0,91,0.00,,,0.00,Wunderground v.1.15,2013-06-12 03:53:00,
2013-06-11 23:59:00,72.7,69.9,30.01,NNW,346,0.0,0.0,91,0.00,,,0.00,Wunderground v.1.15,2013-06-12 03:59:00,